Location: Baumgartsau
(48.4586°N, 14.0864°E)
Time: 13:30:11
(UTC+00:00)

BREEZE M DEB (TANK) - Pass Details

Date: 13 August 2020
Orbit: 304 x 11869 km, 49.5° (Epoch: 20 September)

Event Time Altitude Azimuth Distance (km) Brightness Sun altitude
Exits shadow 00:33:54 26° 190° (S) 8,595 7.7 -24.2°
Maximum altitude 00:51:28 43° 144° (SE) 4,251 6.5 -22.9°
Drops below altitude 10° 01:01:48 10° 77° (ENE) 3,875 7.2 -22.1°
Sets 01:03:53 0° 69° (ENE) 4,324 7.7 -22.0°
